Location: Noordwijk
(52.2400°N, 4.4500°E)
Time: 01:49:49
(UTC+00:00)

CAS-4B - Pass Details

Date: 11 December 2022
Orbit: 515 x 531 km, 43.0° (Epoch: 26 January)

Event Time Altitude Azimuth Distance (km) Brightness Sun altitude
Exits shadow 05:20:07 19° 206° (SSW) 1,306 ? -20.3°
Maximum altitude 05:21:28 22° 178° (S) 1,179 ? -20.1°
Drops below altitude 10° 05:24:39 10° 126° (SE) 1,778 ? -19.6°
Sets 05:27:14 0° 111° (ESE) 2,672 ? -19.2°
